sat.trackr.live / text

‹ back to catalog

HULIANWANG DIGUI-19

NORAD 62979 · 2025-030J

PAYLOAD ACTIVE UNKNOWN

§ Identity

Operator
Country
PRC
Launch date
2025-02-11
Launch site
WSC
Launch vehicle
Mass (kg)
RCS (m²)

External: N2YO · Heavens-Above · Gunter

§ Orbital elements

Epoch: 2026-09-22T22:39:19.898784Z

Period
108.33 min
Inclination
50.0040°
Eccentricity
0.0000584
Mean motion
13.29321862 rev/d
Perigee alt
1,148.9 km
Apogee alt
1,149.8 km
Semi-major
7,527.5 km
B*
5.0480e-5
RAAN
245.1739°
Arg perigee
35.5497°
Mean anomaly
324.5414°
Rev number
7,886

§ Raw data

HULIANWANG DIGUI-191 62979U 25030J   26265.94398031 -.00000101  00000+0  50480-4 0  99942 62979  50.0040 245.1739 0000584  35.5497 324.5414 13.29321862 78864

JSON: /api/v1/satellites/62979 · /tle

For live sub-satellite position, see the globe view (requires WebGL).

§ Visibility from observer

Set your observer location to see the next 7 days of passes ≥ 10°. The values pass through the URL so the page stays shareable.

No JS? Fill the form by hand. The geolocation button needs JavaScript.